World > North America > United States > New York

Hourly Valois, NY Regional Weather

Feedback E-mail the Weather

Latest News

Valois, NY Weather Maps

°F °C°F °C
Valois Weather Map
UTC Time: 5/24/2022, 20:54
Your Time:

Valois, NY Regional Weather

Expires:202205242100;;519384
ASUS41 KBGM 242010
RWRBGM

REGIONAL WEATHER ROUNDUP
NATIONAL WEATHER SERVICE BINGHAMTON NY
400 PM EDT TUE MAY 24 2022

Note: "fair" indicates few or no clouds below 12,000 feet with no
significant weather and/or obstructions to visibility.

* = Station(s) that does not report precipitation, such as rain, 
snow, etc, also no thunder or fog.


NYZ009-015>018-022>025-036-037-044>046-055>057-062-242100
...Central New York...
  
CITY           SKY/WX    TMP DP  RH WIND       PRES   REMARKS
Binghamton     CLOUDY    62  48  60 VRB7      30.26S                  
Cortland       PTSUNNY   66  48  52 S6        30.25S                  
Dansville      CLOUDY    74  49  41 NE7       30.20F                  
Elmira         CLOUDY    67  50  54 SW12      30.24S                  
Endicott       CLOUDY    64  48  55 S5        30.25F                  
Ithaca         PTSUNNY   68  51  54 SW12      30.25F                  
Hamilton       MOSUNNY   66  46  48 S5        30.24S                  
Monticello     CLOUDY    62  48  60 S8        30.30S                  
Norwich        PTSUNNY   66  48  52 SW8       30.28S                  
Oneonta        MOSUNNY   64  46  52 W5        30.28R                  
Penn Yan       PTSUNNY   70  47  43 SE9       30.23S                  
Rome           FAIR      71  47  42 SW5       30.24F                  
Seneca Falls   CLEAR     72  46  40 E6        30.23S                  
Sidney         PTSUNNY   66  50  55 SW3       30.26S                  
Skaneateles    MOCLDY    70  48  46 VRB5      30.23F                  
Syracuse       FAIR      71  47  42 N7        30.23F                  
$$
 

SKY/WX - Weather  TMP - Temperature  DP - Dew Point  RH - Humidity
WIND - Wind Direction/Speed PRES - Barometric Pressure VSB - Visibility
WCI - Wind Chill Index E13G22 Wind - East Wind 13 mph/Gusts of 22 mph

Trending Headlines

Valois Radar Loop



Valois Quick Facts


National Two Day Weather Forecast


E-mail the Valois Weather Forecast

Voice your opinion or tell us about page issues...